Контролен ТХ Measurements

Back to Overview

Timestamp Temperature Humidity
7/8/2020 5:14:20 PM 20,1 C 66.0%
7/8/2020 5:07:17 PM 20,1 C 66.0%
7/8/2020 5:00:13 PM 20,2 C 66.0%
7/8/2020 4:53:10 PM 20,2 C 66.0%
7/8/2020 4:46:07 PM 20,2 C 65.0%
7/8/2020 4:39:11 PM 20,3 C 65.0%
7/8/2020 4:31:59 PM 20,4 C 65.0%
7/8/2020 4:25:03 PM 20,4 C 65.0%
7/8/2020 4:17:51 PM 20,3 C 65.0%
7/8/2020 4:10:48 PM 20,3 C 65.0%
7/8/2020 4:03:46 PM 20,3 C 65.0%
7/8/2020 3:56:44 PM 20,3 C 65.0%
7/8/2020 3:49:43 PM 20,3 C 65.0%
7/8/2020 3:42:39 PM 20,2 C 66.0%
7/8/2020 3:35:43 PM 20,2 C 66.0%
7/8/2020 3:28:35 PM 20,2 C 66.0%
7/8/2020 3:21:32 PM 20,2 C 66.0%
7/8/2020 3:14:29 PM 20,1 C 66.0%
7/8/2020 3:07:28 PM 20,2 C 65.0%
7/8/2020 3:00:24 PM 20,3 C 65.0%
7/8/2020 2:53:21 PM 20,3 C 65.0%
7/8/2020 2:46:19 PM 20,4 C 65.0%
7/8/2020 2:39:18 PM 20,5 C 65.0%
7/8/2020 2:32:14 PM 20,5 C 65.0%
7/8/2020 2:25:09 PM 20,4 C 65.0%
7/8/2020 2:18:07 PM 20,4 C 65.0%
7/8/2020 2:11:03 PM 20,4 C 65.0%
7/8/2020 2:04:02 PM 20,3 C 65.0%
7/8/2020 1:56:58 PM 20,3 C 65.0%
7/8/2020 1:49:54 PM 20,3 C 65.0%
7/8/2020 1:42:52 PM 20,3 C 65.0%
7/8/2020 1:35:47 PM 20,3 C 65.0%
7/8/2020 1:28:46 PM 20,3 C 65.0%
7/8/2020 1:21:50 PM 20,3 C 65.0%
7/8/2020 1:14:40 PM 20,3 C 65.0%
7/8/2020 1:07:37 PM 20,3 C 65.0%
7/8/2020 1:00:31 PM 20,3 C 64.0%
7/8/2020 12:53:32 PM 20,2 C 64.0%
7/8/2020 12:46:29 PM 20,2 C 64.0%
7/8/2020 12:39:26 PM 20,1 C 64.0%
7/8/2020 12:32:30 PM 20,1 C 64.0%
7/8/2020 12:25:19 PM 20,1 C 64.0%
7/8/2020 12:18:17 PM 20,1 C 64.0%
7/8/2020 12:11:14 PM 20,2 C 64.0%
7/8/2020 12:04:10 PM 20,3 C 64.0%
7/8/2020 11:57:06 AM 20,3 C 64.0%
7/8/2020 11:50:05 AM 20,3 C 64.0%
7/8/2020 11:43:00 AM 20,3 C 64.0%
7/8/2020 11:35:58 AM 20,1 C 64.0%
7/8/2020 11:29:02 AM 20,1 C 64.0%
7/8/2020 11:21:52 AM 20,1 C 64.0%
7/8/2020 11:14:48 AM 20,1 C 64.0%
7/8/2020 11:07:45 AM 20,2 C 64.0%
7/8/2020 11:00:42 AM 20,3 C 64.0%
7/8/2020 10:53:40 AM 20,5 C 65.0%
7/8/2020 10:46:36 AM 20,5 C 65.0%
7/8/2020 10:39:32 AM 20,4 C 65.0%
7/8/2020 10:32:28 AM 20,4 C 65.0%
7/8/2020 10:25:24 AM 20,3 C 66.0%
7/8/2020 10:18:23 AM 20,2 C 66.0%
7/8/2020 10:11:19 AM 20,1 C 64.0%
7/8/2020 10:04:15 AM 20,2 C 66.0%
7/8/2020 9:57:13 AM 20,2 C 66.0%
7/8/2020 9:50:17 AM 20,0 C 67.0%
7/8/2020 9:43:09 AM 19,9 C 70.0%
7/8/2020 9:36:06 AM 19,7 C 67.0%
7/8/2020 9:29:03 AM 19,6 C 64.0%
7/8/2020 9:21:58 AM 19,6 C 64.0%
7/8/2020 9:14:56 AM 19,6 C 64.0%
7/8/2020 9:07:53 AM 19,6 C 65.0%
7/8/2020 9:00:50 AM 19,6 C 65.0%
7/8/2020 8:53:47 AM 19,6 C 65.0%
7/8/2020 8:46:43 AM 19,7 C 65.0%
7/8/2020 8:39:40 AM 19,7 C 66.0%
7/8/2020 8:32:39 AM 19,7 C 66.0%
7/8/2020 8:25:36 AM 19,9 C 66.0%
7/8/2020 8:18:31 AM 19,9 C 67.0%
7/8/2020 8:11:29 AM 19,9 C 67.0%
7/8/2020 8:04:27 AM 19,9 C 67.0%
7/8/2020 7:57:23 AM 19,9 C 67.0%
7/8/2020 7:50:21 AM 19,9 C 67.0%
7/8/2020 7:43:25 AM 20,0 C 67.0%
7/8/2020 7:36:15 AM 19,9 C 67.0%
7/8/2020 7:29:11 AM 20,0 C 67.0%
7/8/2020 7:22:08 AM 19,9 C 67.0%
7/8/2020 7:15:07 AM 19,9 C 67.0%
7/8/2020 7:08:03 AM 19,9 C 67.0%
7/8/2020 7:01:01 AM 19,9 C 67.0%
7/8/2020 6:53:57 AM 19,9 C 67.0%
7/8/2020 6:46:54 AM 19,9 C 67.0%
7/8/2020 6:39:58 AM 19,9 C 67.0%
7/8/2020 6:32:50 AM 19,9 C 67.0%
7/8/2020 6:25:46 AM 20,0 C 67.0%
7/8/2020 6:18:43 AM 20,1 C 67.0%
7/8/2020 6:11:47 AM 20,2 C 67.0%
7/8/2020 6:04:38 AM 20,2 C 67.0%
7/8/2020 5:57:36 AM 20,2 C 67.0%
7/8/2020 5:50:34 AM 20,2 C 67.0%
7/8/2020 5:43:30 AM 20,2 C 67.0%
7/8/2020 5:36:26 AM 20,3 C 67.0%
7/8/2020 5:29:24 AM 20,3 C 67.0%
7/8/2020 5:22:21 AM 20,3 C 67.0%
7/8/2020 5:15:18 AM 20,3 C 67.0%
7/8/2020 5:08:15 AM 20,3 C 67.0%
7/8/2020 5:01:13 AM 20,4 C 67.0%
7/8/2020 4:54:11 AM 20,4 C 67.0%
7/8/2020 4:47:08 AM 20,4 C 67.0%
7/8/2020 4:40:04 AM 20,4 C 67.0%
7/8/2020 4:33:02 AM 20,4 C 67.0%
7/8/2020 4:25:59 AM 20,5 C 67.0%
7/8/2020 4:18:55 AM 20,5 C 67.0%
7/8/2020 4:11:54 AM 20,5 C 67.0%
7/8/2020 4:04:52 AM 20,5 C 68.0%
7/8/2020 3:57:48 AM 20,5 C 68.0%
7/8/2020 3:50:45 AM 20,5 C 68.0%
7/8/2020 3:43:41 AM 20,5 C 68.0%
7/8/2020 3:36:38 AM 20,5 C 68.0%
7/8/2020 3:29:32 AM 20,5 C 68.0%
7/8/2020 3:22:36 AM 20,4 C 68.0%
7/8/2020 3:15:31 AM 20,4 C 68.0%
7/8/2020 3:08:29 AM 20,4 C 68.0%
7/8/2020 3:01:24 AM 20,3 C 68.0%
7/8/2020 2:54:21 AM 20,4 C 68.0%
7/8/2020 2:47:18 AM 20,4 C 68.0%
7/8/2020 2:40:15 AM 20,5 C 68.0%
7/8/2020 2:33:10 AM 20,5 C 68.0%
7/8/2020 2:26:08 AM 20,5 C 68.0%
7/8/2020 2:19:05 AM 20,5 C 69.0%
7/8/2020 2:12:01 AM 20,4 C 69.0%
7/8/2020 2:04:58 AM 20,4 C 69.0%
7/8/2020 1:57:55 AM 20,5 C 69.0%
7/8/2020 1:50:59 AM 20,5 C 69.0%
7/8/2020 1:43:46 AM 20,6 C 68.0%
7/8/2020 1:36:50 AM 20,7 C 68.0%
7/8/2020 1:29:42 AM 20,8 C 68.0%
7/8/2020 1:22:39 AM 20,8 C 68.0%
7/8/2020 1:15:35 AM 20,9 C 68.0%
7/8/2020 1:08:31 AM 20,9 C 69.0%
7/8/2020 1:01:29 AM 20,9 C 69.0%
7/8/2020 12:54:27 AM 20,9 C 69.0%
7/8/2020 12:47:24 AM 20,9 C 69.0%
7/8/2020 12:40:20 AM 20,9 C 69.0%
7/8/2020 12:33:18 AM 20,9 C 69.0%
7/8/2020 12:26:16 AM 21,0 C 69.0%
7/8/2020 12:19:14 AM 21,1 C 69.0%
7/8/2020 12:12:12 AM 21,1 C 69.0%
7/8/2020 12:05:07 AM 21,1 C 69.0%